Voltar ao catálogo

FENGYUN 1C DEB

LostPO
NORAD 36214·DEBRIS·🇨🇳 China

Lançado May 10, 1999 de Taiyuan Satellite Launch Center

Loading…

Próximas Passagens (próximas 24 horas)

TLE

ObsoletoSource: Space-Track

Época: Sep 17, 2024, 08:50 UTC

1 36214U 99025DUP 24261.36826660  .00043762  00000-0  11148-1 0  9991
2 36214  99.0668 108.2080 0042709 156.3961 203.9203 14.49839589581146

Acompanhe FENGYUN 1C DEB em tempo real com AllMySat

Download on the App Store